Regional Weather Roundup
Issued by NWS State College, PA

Home | Current Version | Previous Version | Text Only | Print | Product List | Glossary Off
Versions: 1 2 3 4 5 6 7 8 9 10 11 12 13 14 15 16 17 18 19 20 21 22 23 24 25 26 27 28 29 30 31 32 33 34 35 36 37 38 39 40 41 42 43 44 45 46 47 48 49 50

000
ASUS41 KCTP 260110
RWRCTP

REGIONAL WEATHER ROUNDUP
NATIONAL WEATHER SERVICE STATE COLLEGE PA
900 PM EDT FRI MAY 25 2018

Note: "fair" indicates few or no clouds below 12,000 feet with no
significant weather and/or obstructions to visibility.

* = STATION THAT DOES NOT REPORT PRECIPITATION /E.G. RAIN...SNOW...ETC/
    THUNDER OR FOG.

PAZ002>004-007>009-013>016-020>023-029>032-260200-
WESTERN PENNSYLVANIA

CITY           SKY/WX    TMP DP  RH WIND       PRES   REMARKS
ERIE           FAIR      72  51  47 CALM      29.86S
MEADVILLE      FAIR      74  46  36 SW3       29.89S
FRANKLIN*      FAIR      74  53  48 SW3       29.91R
NEW CASTLE     NOT AVBL
BEAVER COUNTY  CLEAR     75  54  46 CALM      29.89S
BUTLER*        FAIR      72  55  55 CALM      29.89F
PITTSBURGH INT FAIR      79  58  48 SW5       29.88S
PITTSBURGH     FAIR      78  60  53 W5        29.89S
INDIANA*       CLEAR     73  63  68 CALM      29.93S
LATROBE        PTCLDY    77  61  57 S3        29.90S
WASHINGTON CO* FAIR      75  65  70 CALM      29.92S
$$

PAZ004>006-010>012-017>019-024>028-033>037-041-042-045-046-049>053-260200-
CENTRAL PENNSYLVANIA

CITY           SKY/WX    TMP DP  RH WIND       PRES   REMARKS
BRADFORD       FAIR      71  43  36 CALM      29.92S
DUBOIS         FAIR      70  59  68 SW3       29.90S
CLEARFIELD     FAIR      75  59  57 SW3       29.90S
JOHNSTOWN      FAIR      74  60  61 W5        29.95S
ALTOONA        FAIR      77  61  57 CALM      29.91S
STATE COLLEGE  CLEAR     79  59  50 W5        29.89S
WILLIAMSPORT   FAIR      77  57  50 CALM      29.82S
SELINSGROVE    FAIR      73  64  73 CALM      29.85S
FT INDIANTOWN  FAIR      74  65  73 CALM      29.87S
CAPITAL CITY   MOCLDY    83  59  44 S10       29.86S
HARRISBURG     FAIR      80  60  50 VRB3      29.85S
YORK           MOCLDY    79  62  56 S5        29.87F
$$

PAZ038>040-043-044-047-048-054-055-060>062-067>071-260200-
EASTERN PENNSYLVANIA

CITY           SKY/WX    TMP DP  RH WIND       PRES   REMARKS
SCRANTON       FAIR      76  58  53 S3        29.86R
MOUNT POCONO   FAIR      70  58  65 W5        29.92R
ALLENTOWN      FAIR      80  61  52 SW10      29.86R
QUAKERTOWN*    CLEAR     77  63  61 CALM      29.88S
READING        FAIR      78  65  63 S8        29.85F
LANCASTER      FAIR      77  65  66 S9        29.87S
COATESVILLE    FAIR      75  64  69 VRB5      29.92S
POTTSTOWN      FAIR      77  62  59 S7        29.89S
BLUE BELL      FAIR      75  63  64 SW8       29.89S
DOYLESTOWN     FAIR      77  61  57 VRB5      29.87S
WILLOW GROVE   NOT AVBL
NORTH PHILA    FAIR      82  61  48 SW12      29.89R
PHILADELPHIA   FAIR      78  63  59 S10       29.88S
$$




USA.gov is the U.S. government's official web portal to all federal, state and local government web resources and services.